Weather in Kingston upon Hull

United Kingdom     53°45′42″N   0°17′56″E
temp.,
°C
wind,
m/s
gust,
m/s
humid.,
%
clouds,
%
prec.,
mm/h
press.,
hPa
HPBL,
m
24 may, tue
tue2401:00+8w3893100 0.7 998181
04:00+9w4987100 0.1 998281
07:00+10w488499 0.1 1000490
10:00+14wnw566130 0.1 10011322
13:00+15w676566 0.9 10031575
16:00+15w686947 2.1 10041537
19:00+13w597724 3.4 1005822
22:00+10wsw410835 0.0 1007260
25 may, wed
wed2501:00+8sw498318 0.0 1008201
04:00+8sw5119159 0.0 1007252
07:00+10sw51284100 0.0 1007597
10:00+12sw81476100 0.0 10071024
13:00+14sw81380100 0.1 10071164
16:00+18w81259100 0.4 10081757
19:00+15w71266100 0.4 10101280
22:00+13w6126890 0.0 1013901
26 may, thu
thu2601:00+10wsw5127617 0.0 1015486
04:00+9wsw5118862 0.0 1016390
07:00+11wsw51079100 0.0 1017534
10:00+11sw51183100 0.1 1017475
13:00+14sw61285100 0.1 10171008
16:00+14wsw61489100 0.4 10171187
19:00+15w611720 0.5 10171309
22:00+11wnw5117126 0.0 1019674
27 may, fri
fri2701:00+8w5117456 0.0 1020463
04:00+7w5127966 0.0 1021461
07:00+9w713725 0.0 1021883
10:00+13wnw912585 0.0 10221396
13:00+15wnw8125294 0.0 10221919
16:00+14wnw8126196 0.1 10231778
19:00+14wnw711635 0.3 10231365
22:00+10wnw512755 0.1 1024516
28 may, sat
sat2801:00+8wnw4118498 0.1 1025268
04:00+6wnw378891 0.0 1025150
07:00+9nw3876100 0.0 1025286
10:00+13nnw3460100 0.0 10251051
13:00+15nnw245397 0.0 10241660
16:00+12ene3464100 0.1 1023416
19:00+12ene226556 0.1 1022554
22:00+9nnw227785 0.0 102285